sat.trackr.live / text

‹ back to catalog

STARLINK-5469

NORAD 55649 · 2023-021X

PAYLOAD ACTIVE UNKNOWN

§ Identity

Operator
Country
US
Launch date
2023-02-17
Launch site
AFWTR
Launch vehicle
Mass (kg)
RCS (m²)

Purposes: comms

External: N2YO · Heavens-Above · Gunter

§ Orbital elements

Epoch: 2026-05-24T23:54:46.850112Z

Period
96.11 min
Inclination
69.9993°
Eccentricity
0.0002675
Mean motion
14.98330629 rev/d
Perigee alt
570.2 km
Apogee alt
573.9 km
Semi-major
6,950.2 km
B*
4.2554e-5
RAAN
351.9701°
Arg perigee
268.9553°
Mean anomaly
91.1299°
Rev number
18,022

§ Raw data

STARLINK-54691 55649U 23021X   26144.99637558  .00000415  00000+0  42554-4 0  99992 55649  69.9993 351.9701 0002675 268.9553  91.1299 14.98330629180229

JSON: /api/v1/satellites/55649 · /tle

For live sub-satellite position, see the globe view (requires WebGL).

§ Visibility from observer

Set your observer location to see the next 7 days of passes ≥ 10°. The values pass through the URL so the page stays shareable.

No JS? Fill the form by hand. The geolocation button needs JavaScript.